| time (UTC) | temp F | wind direction | speed MPH | gust MPH | rain 1hr in | rain 24hr in | rain mn in | humidity % | barometer mb |
| 20260505004003 | 57 | 23 | 1.0 | 2.0 | 0.00 | 0.00 | 0.00 | 81 | 1014.5 |
| 20260505003603 | 57 | 0 | 0.0 | 0.0 | 0.00 | 0.00 | 0.00 | 79 | 1014.6 |
| 20260505003203 | 57 | 0 | 0.0 | 0.0 | 0.00 | 0.00 | 0.00 | 78 | 1014.6 |
| 20260505002803 | 57 | 0 | 0.0 | 0.0 | 0.00 | 0.00 | 0.00 | 78 | 1014.7 |
| 20260505002403 | 57 | 0 | 0.0 | 0.0 | 0.00 | 0.00 | 0.00 | 78 | 1014.8 |
| 20260505002003 | 57 | 0 | 0.0 | 0.0 | 0.00 | 0.00 | 0.00 | 78 | 1015.0 |
| 20260505001603 | 57 | 98 | 0.0 | 1.0 | 0.00 | 0.00 | 0.00 | 78 | 1014.9 |
| 20260505001203 | 57 | 98 | 0.0 | 1.0 | 0.00 | 0.00 | 0.00 | 77 | 1015.1 |
| 20260505000803 | 57 | 98 | 0.0 | 1.0 | 0.00 | 0.00 | 0.00 | 78 | 1015.0 |
| 20260505000405 | 57 | 0 | 0.0 | 0.0 | 0.00 | 0.00 | 0.00 | 78 | 1015.1 |
| 20260505000003 | 57 | 0 | 0.0 | 0.0 | 0.00 | 0.00 | 0.00 | 77 | 1015.1 |
| 20260504235603 | 58 | 101 | 0.0 | 2.0 | 0.00 | 0.00 | 0.00 | 76 | 1015.1 |
| 20260504235203 | 58 | 103 | 1.0 | 3.0 | 0.00 | 0.00 | 0.00 | 75 | 1015.1 |
| 20260504234803 | 58 | 101 | 1.0 | 3.0 | 0.00 | 0.00 | 0.00 | 74 | 1015.0 |
| 20260504234615 | 58 | 100 | 1.0 | 3.0 | 0.00 | 0.00 | 0.00 | 75 | 1015.1 |
| 20260504234003 | 59 | 98 | 2.0 | 4.0 | 0.00 | 0.00 | 0.00 | 73 | 1015.3 |
| 20260504233603 | 59 | 100 | 3.0 | 4.0 | 0.00 | 0.00 | 0.00 | 73 | 1015.2 |
| 20260504233203 | 58 | 99 | 3.0 | 4.0 | 0.00 | 0.00 | 0.00 | 73 | 1015.2 |
| 20260504232803 | 59 | 98 | 2.0 | 4.0 | 0.00 | 0.00 | 0.00 | 73 | 1015.3 |
| 20260504232403 | 58 | 99 | 2.0 | 4.0 | 0.00 | 0.00 | 0.00 | 74 | 1015.3 |
| 20260504232217 | 58 | 98 | 2.0 | 3.0 | 0.00 | 0.00 | 0.00 | 75 | 1015.4 |
| 20260504231603 | 58 | 95 | 1.0 | 2.0 | 0.00 | 0.00 | 0.00 | 75 | 1015.4 |
| 20260504231203 | 58 | 53 | 1.0 | 2.0 | 0.00 | 0.00 | 0.00 | 75 | 1015.5 |
| 20260504230803 | 58 | 34 | 1.0 | 2.0 | 0.00 | 0.00 | 0.00 | 75 | 1015.5 |
| 20260504230614 | 58 | 29 | 1.0 | 2.0 | 0.00 | 0.00 | 0.00 | 76 | 1015.7 |
| 20260504230003 | 57 | 19 | 1.0 | 2.0 | 0.00 | 0.00 | 0.00 | 77 | 1015.6 |
| 20260504225603 | 57 | 19 | 1.0 | 2.0 | 0.00 | 0.00 | 0.00 | 77 | 1015.5 |
| 20260504225412 | 57 | 19 | 1.0 | 2.0 | 0.00 | 0.00 | 0.00 | 77 | 1015.6 |
| 20260504224803 | 58 | 18 | 1.0 | 2.0 | 0.00 | 0.00 | 0.00 | 76 | 1015.6 |
| 20260504224616 | 58 | 18 | 1.0 | 2.0 | 0.00 | 0.00 | 0.00 | 75 | 1015.6 |
| 20260504224003 | 58 | 0 | 0.0 | 0.0 | 0.00 | 0.00 | 0.00 | 75 | 1015.6 |
| 20260504223603 | 58 | 0 | 0.0 | 0.0 | 0.00 | 0.00 | 0.00 | 75 | 1015.6 |
| 20260504223203 | 58 | 0 | 0.0 | 0.0 | 0.00 | 0.00 | 0.00 | 75 | 1015.6 |
| 20260504222803 | 58 | 0 | 0.0 | 0.0 | 0.00 | 0.00 | 0.00 | 74 | 1015.7 |
| 20260504222403 | 58 | 334 | 0.0 | 2.0 | 0.00 | 0.00 | 0.00 | 75 | 1015.8 |
| 20260504222003 | 58 | 355 | 1.0 | 3.0 | 0.00 | 0.00 | 0.00 | 75 | 1015.9 |
| 20260504221603 | 58 | 357 | 2.0 | 4.0 | 0.00 | 0.00 | 0.00 | 75 | 1015.7 |
| 20260504221204 | 58 | 358 | 2.0 | 4.0 | 0.00 | 0.00 | 0.00 | 75 | 1015.8 |
| 20260504221016 | 58 | 357 | 2.0 | 4.0 | 0.00 | 0.00 | 0.00 | 75 | 1015.9 |
| 20260504220403 | 59 | 2 | 0.0 | 2.0 | 0.00 | 0.00 | 0.00 | 73 | 1015.8 |
| 20260504220004 | 60 | 143 | 0.0 | 1.0 | 0.00 | 0.00 | 0.00 | 72 | 1015.7 |
| 20260504215603 | 60 | 150 | 1.0 | 2.0 | 0.00 | 0.00 | 0.00 | 71 | 1015.6 |
| 20260504215203 | 60 | 155 | 1.0 | 2.0 | 0.00 | 0.00 | 0.00 | 70 | 1015.6 |
| 20260504214803 | 60 | 162 | 1.0 | 2.0 | 0.00 | 0.00 | 0.00 | 70 | 1015.8 |
| 20260504214403 | 61 | 166 | 2.0 | 2.0 | 0.00 | 0.00 | 0.00 | 70 | 1015.7 |
| 20260504214003 | 61 | 171 | 2.0 | 2.0 | 0.00 | 0.00 | 0.00 | 69 | 1015.7 |
| 20260504213816 | 61 | 173 | 2.0 | 2.0 | 0.00 | 0.00 | 0.00 | 69 | 1015.9 |
| 20260504213203 | 61 | 186 | 2.0 | 3.0 | 0.00 | 0.00 | 0.00 | 68 | 1015.6 |
| 20260504212803 | 62 | 194 | 2.0 | 4.0 | 0.00 | 0.00 | 0.00 | 68 | 1015.8 |
| 20260504212403 | 62 | 198 | 3.0 | 4.0 | 0.00 | 0.00 | 0.00 | 67 | 1015.8 |
| 20260504212003 | 62 | 203 | 3.0 | 4.0 | 0.00 | 0.00 | 0.00 | 67 | 1015.8 |
| 20260504211603 | 62 | 201 | 2.0 | 4.0 | 0.00 | 0.00 | 0.00 | 68 | 1016.1 |
| 20260504211203 | 62 | 186 | 2.0 | 3.0 | 0.00 | 0.00 | 0.00 | 68 | 1015.9 |
| 20260504210803 | 62 | 167 | 1.0 | 2.0 | 0.00 | 0.00 | 0.00 | 68 | 1015.9 |
| 20260504210403 | 62 | 144 | 0.0 | 1.0 | 0.00 | 0.00 | 0.00 | 69 | 1016.0 |
| 20260504210004 | 62 | 144 | 0.0 | 2.0 | 0.00 | 0.00 | 0.00 | 68 | 1016.0 |
| 20260504205814 | 62 | 144 | 1.0 | 2.0 | 0.00 | 0.00 | 0.00 | 69 | 1016.1 |
| 20260504205414 | 62 | 144 | 1.0 | 2.0 | 0.00 | 0.00 | 0.00 | 68 | 1015.9 |
| 20260504204803 | 62 | 143 | 0.0 | 2.0 | 0.00 | 0.00 | 0.00 | 68 | 1016.0 |
| 20260504204617 | 62 | 143 | 0.0 | 2.0 | 0.00 | 0.00 | 0.00 | 68 | 1015.8 |
| 20260504204003 | 62 | 0 | 0.0 | 0.0 | 0.00 | 0.00 | 0.00 | 68 | 1015.8 |
| 20260504203816 | 62 | 0 | 0.0 | 0.0 | 0.00 | 0.00 | 0.00 | 67 | 1016.0 |
| 20260504203203 | 62 | 0 | 0.0 | 0.0 | 0.00 | 0.00 | 0.00 | 67 | 1015.9 |
| 20260504202803 | 62 | 0 | 0.0 | 0.0 | 0.00 | 0.00 | 0.00 | 67 | 1016.0 |
| 20260504202403 | 62 | 0 | 0.0 | 0.0 | 0.00 | 0.00 | 0.00 | 67 | 1015.8 |
| 20260504202003 | 63 | 143 | 0.0 | 1.0 | 0.00 | 0.00 | 0.00 | 66 | 1015.9 |
| 20260504201603 | 62 | 143 | 0.0 | 1.0 | 0.00 | 0.00 | 0.00 | 66 | 1015.9 |
| 20260504201203 | 63 | 143 | 1.0 | 1.0 | 0.00 | 0.00 | 0.00 | 66 | 1015.9 |
| 20260504200803 | 63 | 143 | 1.0 | 2.0 | 0.00 | 0.00 | 0.00 | 66 | 1015.8 |
| 20260504200403 | 63 | 145 | 1.0 | 2.0 | 0.00 | 0.00 | 0.00 | 65 | 1015.8 |
| 20260504200003 | 64 | 150 | 2.0 | 4.0 | 0.00 | 0.00 | 0.00 | 64 | 1015.9 |
| 20260504195603 | 64 | 159 | 2.0 | 4.0 | 0.00 | 0.00 | 0.00 | 63 | 1015.9 |
| 20260504195203 | 64 | 176 | 3.0 | 4.0 | 0.00 | 0.00 | 0.00 | 63 | 1015.8 |
| 20260504195014 | 64 | 187 | 2.0 | 4.0 | 0.00 | 0.00 | 0.00 | 63 | 1015.8 |
| 20260504194403 | 64 | 205 | 2.0 | 3.0 | 0.00 | 0.00 | 0.00 | 63 | 1015.6 |
| 20260504194003 | 64 | 187 | 2.0 | 3.0 | 0.00 | 0.00 | 0.00 | 63 | 1015.8 |
| 20260504193817 | 64 | 176 | 2.0 | 4.0 | 0.00 | 0.00 | 0.00 | 63 | 1015.9 |
| 20260504193203 | 65 | 159 | 3.0 | 4.0 | 0.00 | 0.00 | 0.00 | 61 | 1015.8 |
| 20260504193016 | 65 | 160 | 3.0 | 5.0 | 0.00 | 0.00 | 0.00 | 61 | 1015.6 |
| 20260504192615 | 65 | 166 | 4.0 | 6.0 | 0.00 | 0.00 | 0.00 | 60 | 1015.9 |
| 20260504192003 | 66 | 176 | 5.0 | 8.0 | 0.00 | 0.00 | 0.00 | 59 | 1015.8 |
| 20260504191603 | 66 | 178 | 5.0 | 8.0 | 0.00 | 0.00 | 0.00 | 59 | 1015.6 |
| 20260504191203 | 66 | 182 | 5.0 | 10.0 | 0.00 | 0.00 | 0.00 | 59 | 1015.7 |
| 20260504190803 | 66 | 182 | 5.0 | 10.0 | 0.00 | 0.00 | 0.00 | 59 | 1015.6 |
| 20260504190403 | 66 | 181 | 5.0 | 10.0 | 0.00 | 0.00 | 0.00 | 58 | 1015.5 |
| 20260504190003 | 66 | 172 | 5.0 | 7.0 | 0.00 | 0.00 | 0.00 | 58 | 1015.6 |
| 20260504185603 | 67 | 167 | 6.0 | 10.0 | 0.00 | 0.00 | 0.00 | 57 | 1015.6 |
| 20260504185203 | 67 | 165 | 7.0 | 10.0 | 0.00 | 0.00 | 0.00 | 56 | 1015.6 |
| 20260504184803 | 67 | 162 | 7.0 | 9.0 | 0.00 | 0.00 | 0.00 | 55 | 1015.6 |
| 20260504184614 | 67 | 162 | 7.0 | 11.0 | 0.00 | 0.00 | 0.00 | 55 | 1015.6 |
| 20260504184003 | 67 | 164 | 7.0 | 11.0 | 0.00 | 0.00 | 0.00 | 53 | 1015.4 |
| 20260504183812 | 67 | 165 | 7.0 | 11.0 | 0.00 | 0.00 | 0.00 | 53 | 1015.4 |
| 20260504183203 | 68 | 165 | 7.0 | 9.0 | 0.00 | 0.00 | 0.00 | 52 | 1015.5 |
| 20260504182803 | 68 | 162 | 7.0 | 9.0 | 0.00 | 0.00 | 0.00 | 52 | 1015.2 |
| 20260504182403 | 68 | 162 | 7.0 | 11.0 | 0.00 | 0.00 | 0.00 | 51 | 1015.4 |
| 20260504182215 | 69 | 161 | 7.0 | 11.0 | 0.00 | 0.00 | 0.00 | 51 | 1015.4 |
| 20260504181603 | 69 | 160 | 7.0 | 11.0 | 0.00 | 0.00 | 0.00 | 49 | 1015.5 |
| 20260504181203 | 69 | 160 | 7.0 | 11.0 | 0.00 | 0.00 | 0.00 | 48 | 1015.5 |
| 20260504180803 | 70 | 162 | 7.0 | 11.0 | 0.00 | 0.00 | 0.00 | 48 | 1015.5 |
| 20260504180618 | 70 | 162 | 7.0 | 11.0 | 0.00 | 0.00 | 0.00 | 48 | 1015.3 |
| 20260504180217 | 70 | 161 | 7.0 | 11.0 | 0.00 | 0.00 | 0.00 | 48 | 1015.5 |
| 20260504175816 | 71 | 163 | 8.0 | 14.0 | 0.00 | 0.00 | 0.00 | 48 | 1015.5 |
| 20260504175203 | 72 | 164 | 8.0 | 14.0 | 0.00 | 0.00 | 0.00 | 47 | 1015.4 |
| 20260504175015 | 72 | 160 | 7.0 | 14.0 | 0.00 | 0.00 | 0.00 | 47 | 1015.1 |
| 20260504174403 | 72 | 155 | 5.0 | 13.0 | 0.00 | 0.00 | 0.00 | 47 | 1015.3 |
| 20260504174003 | 72 | 161 | 5.0 | 9.0 | 0.00 | 0.00 | 0.00 | 48 | 1015.1 |
| 20260504173813 | 72 | 159 | 5.0 | 9.0 | 0.00 | 0.00 | 0.00 | 48 | 1015.3 |
| 20260504173203 | 73 | 152 | 6.0 | 13.0 | 0.00 | 0.00 | 0.00 | 47 | 1015.2 |
| 20260504172803 | 74 | 153 | 6.0 | 13.0 | 0.00 | 0.00 | 0.00 | 45 | 1015.1 |
| 20260504172616 | 74 | 156 | 6.0 | 10.0 | 0.00 | 0.00 | 0.00 | 45 | 1015.0 |
| 20260504172003 | 76 | 158 | 7.0 | 13.0 | 0.00 | 0.00 | 0.00 | 40 | 1015.0 |
| 20260504171603 | 76 | 163 | 6.0 | 13.0 | 0.00 | 0.00 | 0.00 | 33 | 1015.0 |
| 20260504171203 | 76 | 168 | 5.0 | 11.0 | 0.00 | 0.00 | 0.00 | 33 | 1015.0 |
| 20260504170803 | 76 | 167 | 5.0 | 8.0 | 0.00 | 0.00 | 0.00 | 34 | 1015.0 |
| 20260504170613 | 76 | 165 | 5.0 | 8.0 | 0.00 | 0.00 | 0.00 | 34 | 1015.1 |
| 20260504160403 | 77 | 149 | 5.0 | 9.0 | 0.00 | 0.00 | 0.00 | 35 | 1015.4 |
| 20260504150803 | 79 | 113 | 3.0 | 10.0 | 0.00 | 0.00 | 0.00 | 41 | 1015.2 |
| 20260504150403 | 79 | 100 | 4.0 | 10.0 | 0.00 | 0.00 | 0.00 | 41 | 1015.5 |
| 20260504141203 | 78 | 96 | 5.0 | 9.0 | 0.00 | 0.00 | 0.00 | 44 | 1015.7 |
| 20260504140803 | 78 | 104 | 5.0 | 11.0 | 0.00 | 0.00 | 0.00 | 43 | 1015.7 |
| 20260504140403 | 79 | 112 | 4.0 | 11.0 | 0.00 | 0.00 | 0.00 | 44 | 1015.5 |
| 20260504140214 | 79 | 121 | 4.0 | 11.0 | 0.00 | 0.00 | 0.00 | 43 | 1015.6 |
| 20260504130803 | 80 | 155 | 4.0 | 10.0 | 0.00 | 0.00 | 0.00 | 39 | 1016.2 |
| 20260504130403 | 80 | 117 | 4.0 | 10.0 | 0.00 | 0.00 | 0.00 | 39 | 1016.4 |
| 20260504082003 | 70 | 17 | 3.0 | 5.0 | 0.00 | 0.00 | 0.00 | 59 | 1017.8 |
| 20260504081603 | 70 | 15 | 3.0 | 5.0 | 0.00 | 0.00 | 0.00 | 61 | 1018.0 |
| 20260504081203 | 69 | 16 | 3.0 | 7.0 | 0.00 | 0.00 | 0.00 | 61 | 1018.1 |
| 20260504080803 | 70 | 12 | 3.0 | 7.0 | 0.00 | 0.00 | 0.00 | 61 | 1018.0 |
| 20260504080403 | 70 | 12 | 2.0 | 6.0 | 0.00 | 0.00 | 0.00 | 63 | 1017.8 |
| 20260504050403 | 58 | 358 | 0.0 | 1.0 | 0.00 | 0.00 | 0.00 | 80 | 1016.8 |
| 20260504050003 | 57 | 358 | 0.0 | 1.0 | 0.00 | 0.00 | 0.00 | 81 | 1016.8 |
| 20260504045814 | 57 | 358 | 0.0 | 1.0 | 0.00 | 0.00 | 0.00 | 81 | 1017.0 |
| 20260504045203 | 57 | 4 | 0.0 | 1.0 | 0.00 | 0.00 | 0.00 | 80 | 1016.8 |
| 20260504044803 | 57 | 4 | 0.0 | 1.0 | 0.00 | 0.00 | 0.00 | 80 | 1016.8 |
| 20260504044612 | 57 | 4 | 0.0 | 1.0 | 0.00 | 0.00 | 0.00 | 81 | 1016.7 |
| 20260504044217 | 57 | 4 | 0.0 | 1.0 | 0.00 | 0.00 | 0.00 | 81 | 1016.7 |
| 20260504043603 | 56 | 357 | 0.0 | 2.0 | 0.00 | 0.00 | 0.00 | 82 | 1016.7 |
| 20260504043203 | 56 | 356 | 0.0 | 2.0 | 0.00 | 0.00 | 0.00 | 83 | 1016.6 |
| 20260504042803 | 56 | 346 | 0.0 | 2.0 | 0.00 | 0.00 | 0.00 | 84 | 1016.5 |
| 20260504042403 | 55 | 0 | 0.0 | 0.0 | 0.00 | 0.00 | 0.00 | 85 | 1016.4 |
| 20260504042003 | 55 | 0 | 0.0 | 0.0 | 0.00 | 0.00 | 0.00 | 87 | 1016.5 |
| 20260504041603 | 54 | 0 | 0.0 | 0.0 | 0.00 | 0.00 | 0.00 | 88 | 1016.3 |
| 20260504041203 | 54 | 0 | 0.0 | 0.0 | 0.00 | 0.00 | 0.00 | 88 | 1016.4 |
| 20260504040803 | 54 | 0 | 0.0 | 0.0 | 0.00 | 0.00 | 0.00 | 89 | 1016.4 |
| 20260504040616 | 54 | 0 | 0.0 | 0.0 | 0.00 | 0.00 | 0.00 | 89 | 1016.4 |
| 20260504040003 | 54 | 0 | 0.0 | 0.0 | 0.00 | 0.00 | 0.00 | 89 | 1016.2 |
| 20260504035815 | 54 | 0 | 0.0 | 0.0 | 0.00 | 0.00 | 0.00 | 89 | 1016.4 |
| 20260504035203 | 54 | 0 | 0.0 | 0.0 | 0.00 | 0.00 | 0.00 | 89 | 1016.1 |
| 20260504035014 | 54 | 0 | 0.0 | 0.0 | 0.00 | 0.00 | 0.00 | 88 | 1016.3 |
| 20260504034403 | 54 | 0 | 0.0 | 0.0 | 0.00 | 0.00 | 0.00 | 88 | 1016.3 |
| 20260504034003 | 54 | 0 | 0.0 | 0.0 | 0.00 | 0.00 | 0.00 | 88 | 1016.3 |
| 20260504033603 | 55 | 0 | 0.0 | 0.0 | 0.00 | 0.00 | 0.00 | 88 | 1016.3 |
| 20260504033416 | 55 | 0 | 0.0 | 0.0 | 0.00 | 0.00 | 0.00 | 88 | 1016.5 |
| 20260504032803 | 55 | 0 | 0.0 | 0.0 | 0.00 | 0.00 | 0.00 | 87 | 1016.4 |
| 20260504032403 | 55 | 0 | 0.0 | 0.0 | 0.00 | 0.00 | 0.00 | 87 | 1016.5 |
| 20260504032003 | 55 | 0 | 0.0 | 0.0 | 0.00 | 0.00 | 0.00 | 87 | 1016.3 |
| 20260504031603 | 55 | 0 | 0.0 | 0.0 | 0.00 | 0.00 | 0.00 | 87 | 1016.4 |
| 20260504031204 | 56 | 0 | 0.0 | 0.0 | 0.00 | 0.00 | 0.00 | 87 | 1016.5 |
| 20260504030803 | 56 | 0 | 0.0 | 0.0 | 0.00 | 0.00 | 0.00 | 87 | 1016.4 |
| 20260504030403 | 56 | 0 | 0.0 | 0.0 | 0.00 | 0.00 | 0.00 | 87 | 1016.5 |
| 20260504030003 | 55 | 0 | 0.0 | 0.0 | 0.00 | 0.00 | 0.00 | 87 | 1016.4 |
| 20260504025816 | 55 | 0 | 0.0 | 0.0 | 0.00 | 0.00 | 0.00 | 86 | 1016.5 |
| 20260504025203 | 56 | 0 | 0.0 | 0.0 | 0.00 | 0.00 | 0.00 | 86 | 1016.5 |
| 20260504024803 | 56 | 0 | 0.0 | 0.0 | 0.00 | 0.00 | 0.00 | 86 | 1016.6 |
| 20260504024613 | 56 | 0 | 0.0 | 0.0 | 0.00 | 0.00 | 0.00 | 86 | 1016.6 |
| 20260504024003 | 56 | 0 | 0.0 | 0.0 | 0.00 | 0.00 | 0.00 | 86 | 1016.6 |
| 20260504023603 | 56 | 0 | 0.0 | 0.0 | 0.00 | 0.00 | 0.00 | 86 | 1016.7 |
| 20260504023203 | 56 | 0 | 0.0 | 0.0 | 0.00 | 0.00 | 0.00 | 86 | 1016.6 |
| 20260504022803 | 56 | 0 | 0.0 | 0.0 | 0.00 | 0.00 | 0.00 | 85 | 1016.5 |
| 20260504022403 | 56 | 0 | 0.0 | 0.0 | 0.00 | 0.00 | 0.00 | 85 | 1016.7 |
| 20260504022003 | 56 | 0 | 0.0 | 0.0 | 0.00 | 0.00 | 0.00 | 85 | 1016.7 |
| 20260504021603 | 56 | 0 | 0.0 | 0.0 | 0.00 | 0.00 | 0.00 | 84 | 1016.7 |
| 20260504021203 | 56 | 0 | 0.0 | 0.0 | 0.00 | 0.00 | 0.00 | 85 | 1016.5 |
| 20260504020803 | 56 | 0 | 0.0 | 0.0 | 0.00 | 0.00 | 0.00 | 85 | 1016.6 |
| 20260504020403 | 56 | 338 | 0.0 | 2.0 | 0.00 | 0.00 | 0.00 | 85 | 1016.5 |
| 20260504020217 | 56 | 338 | 0.0 | 2.0 | 0.00 | 0.00 | 0.00 | 86 | 1016.4 |
| 20260504015603 | 56 | 338 | 0.0 | 2.0 | 0.00 | 0.00 | 0.00 | 86 | 1016.5 |
| 20260504015203 | 56 | 0 | 0.0 | 0.0 | 0.00 | 0.00 | 0.00 | 86 | 1016.4 |
| 20260504014803 | 56 | 0 | 0.0 | 0.0 | 0.00 | 0.00 | 0.00 | 86 | 1016.5 |
| 20260504014614 | 56 | 0 | 0.0 | 0.0 | 0.00 | 0.00 | 0.00 | 86 | 1016.5 |
| 20260504014003 | 56 | 0 | 0.0 | 0.0 | 0.00 | 0.00 | 0.00 | 86 | 1016.6 |
| 20260504013603 | 56 | 0 | 0.0 | 0.0 | 0.00 | 0.00 | 0.00 | 86 | 1016.6 |
| 20260504013417 | 56 | 0 | 0.0 | 0.0 | 0.00 | 0.00 | 0.00 | 86 | 1016.5 |
| 20260504012803 | 56 | 0 | 0.0 | 0.0 | 0.00 | 0.00 | 0.00 | 86 | 1016.5 |
| 20260504012403 | 56 | 0 | 0.0 | 0.0 | 0.00 | 0.00 | 0.00 | 86 | 1016.6 |
| 20260504012003 | 56 | 0 | 0.0 | 0.0 | 0.00 | 0.00 | 0.00 | 86 | 1016.6 |
| 20260504011603 | 56 | 0 | 0.0 | 0.0 | 0.00 | 0.00 | 0.00 | 86 | 1016.5 |
| 20260504011203 | 56 | 0 | 0.0 | 0.0 | 0.00 | 0.00 | 0.00 | 86 | 1016.6 |
| 20260504010803 | 56 | 0 | 0.0 | 0.0 | 0.00 | 0.00 | 0.00 | 86 | 1016.7 |
| 20260504010613 | 56 | 0 | 0.0 | 0.0 | 0.00 | 0.00 | 0.00 | 86 | 1016.7 |
| 20260504010003 | 56 | 0 | 0.0 | 0.0 | 0.00 | 0.00 | 0.00 | 86 | 1016.8 |
| 20260504005603 | 56 | 0 | 0.0 | 0.0 | 0.00 | 0.00 | 0.00 | 86 | 1016.7 |
| 20260504005203 | 56 | 0 | 0.0 | 0.0 | 0.00 | 0.00 | 0.00 | 86 | 1016.6 |
| 20260504004803 | 56 | 0 | 0.0 | 0.0 | 0.00 | 0.00 | 0.00 | 86 | 1016.6 |
| 20260504004403 | 56 | 0 | 0.0 | 0.0 | 0.00 | 0.00 | 0.00 | 85 | 1016.6 |